Location: Schommer Observatory
(40.5200°N, 74.4500°W)
Time: 12:03:10
(UTC-04:00)

Amateur Radio Satellites - All Passes

Search period start: 28 April 2017 11:33
Search period end: 29 April 2017 11:33
Location: Schommer Observatory, 40.5200°N, 74.4500°W

Satellite Date Start Highest point End Downlink Frequencies (MHz)
Time Altitude Azimuth
NANOSAT C BR1 28 Apr 11:37:23 11:41:24 46° 73° (ENE) 11:45:25 145.865
OBJECT BX 28 Apr 11:37:49 11:40:49 24° 290° (WNW) 11:43:49 145.990 - 145.960
AIST 2D 28 Apr 11:50:05 11:53:27 50° 260° (W) 11:56:52 435.315
ISS 28 Apr 11:54:21 11:55:47 12° 5° (N) 11:57:12 437.550
ESTCUBE 1 28 Apr 11:56:31 12:00:40 34° 97° (E) 12:04:48 437.505/2401.250
VELOX 1 28 Apr 12:04:33 12:05:20 10° 90° (E) 12:06:06 145.980
DUCHIFAT 1 28 Apr 12:05:58 12:10:10 90° 70° (ENE) 12:14:22 145.980
EO-79 28 Apr 12:06:11 12:10:23 74° 258° (WSW) 12:14:37 145.935-145.965
LO-87 28 Apr 12:35:18 12:38:34 34° 288° (WNW) 12:41:48 145.935 - 145.965
AO-85 28 Apr 12:39:30 12:43:48 84° 299° (WNW) 12:47:53 145.980
POLYITAN 1 28 Apr 12:46:54 12:50:24 25° 264° (W) 12:53:54 437.675
PCSat 28 Apr 12:47:38 12:51:49 23° 253° (WSW) 12:55:59 145.827
DX 1 28 Apr 12:49:25 12:51:11 12° 91° (E) 12:52:56 434.975-435.025
SPROUT 28 Apr 12:50:24 12:54:15 33° 97° (E) 12:58:05 437.525
RS-15 28 Apr 12:51:35 13:00:40 22° 9° (N) 13:09:36 29.354- 29.394
QB50P2 28 Apr 12:54:05 12:57:12 20° 266° (W) 13:00:19 145.880/145.840
Tancredo 1 28 Apr 12:54:57 12:57:15 19° 21° (NNE) 12:59:32 437.200
50 SAT 28 Apr 12:57:33 13:00:15 21° 95° (E) 13:02:55 437.505
BUGSAT 1 28 Apr 13:00:20 13:04:28 69° 258° (WSW) 13:08:33 437.445
Oscar 19 28 Apr 13:01:06 13:05:53 40° 70° (ENE) 13:10:43 437.125/150
NANOSAT C BR1 28 Apr 13:15:05 13:17:21 14° 268° (W) 13:19:36 145.865
Gurwin Techsat 1B 28 Apr 13:17:50 13:22:35 35° 68° (ENE) 13:27:22 435.225
ISS 28 Apr 13:30:19 13:33:08 26° 25° (NNE) 13:35:56 437.550
YUBILEINY 28 Apr 13:33:31 13:36:10 11° 56° (NE) 13:38:48 435.215
ESTCUBE 1 28 Apr 13:33:43 13:37:16 23° 293° (WNW) 13:40:48 437.505/2401.250
VELOX 1 28 Apr 13:37:49 13:42:13 68° 286° (WNW) 13:46:35 145.980
BEESAT 3 28 Apr 13:41:27 13:45:22 84° 121° (ESE) 13:49:23 437.485
BEESAT 2 28 Apr 13:45:08 13:48:40 32° 115° (ESE) 13:52:16 435.950
UKube-1 28 Apr 13:46:40 13:50:41 37° 98° (E) 13:54:40 .
SO-50 28 Apr 13:51:44 13:54:47 17° 42° (NE) 13:57:49 436.795
AO-7 28 Apr 14:03:04 14:09:37 27° 55° (NE) 14:16:10 .
DX 1 28 Apr 14:23:26 14:27:43 57° 286° (WNW) 14:31:58 434.975-435.025
AO-85 28 Apr 14:23:43 14:24:47 11° 320° (NW) 14:25:50 145.980
SPROUT 28 Apr 14:26:47 14:29:57 21° 293° (WNW) 14:33:05 437.525
Tancredo 1 28 Apr 14:30:20 14:33:26 76° 220° (SW) 14:36:31 437.200
50 SAT 28 Apr 14:30:24 14:33:04 21° 291° (WNW) 14:35:44 437.505
ITAMSAT 1 28 Apr 14:31:47 14:36:02 26° 66° (ENE) 14:40:16 435.822/435.867
Oscar 19 28 Apr 14:41:12 14:45:19 24° 266° (W) 14:49:29 437.125/150
Gurwin Techsat 1B 28 Apr 14:57:56 15:02:31 29° 264° (W) 15:07:08 435.225
RS-15 28 Apr 15:06:05 15:17:42 44° 41° (NE) 15:28:48 29.354- 29.394
ISS 28 Apr 15:06:36 15:09:43 42° 223° (SW) 15:12:50 437.550
BEESAT 3 28 Apr 15:21:55 15:23:32 12° 320° (NW) 15:25:09 437.485
BEESAT 2 28 Apr 15:23:13 15:26:28 23° 312° (NW) 15:29:45 435.950
UKube-1 28 Apr 15:23:20 15:26:27 20° 294° (WNW) 15:29:32 .
BEESAT 28 Apr 15:23:56 15:28:15 33° 97° (E) 15:32:33 436.000
YUBILEINY 28 Apr 15:26:20 15:35:02 62° 79° (ENE) 15:43:42 435.215
SO-50 28 Apr 15:31:12 15:35:40 64° 240° (WSW) 15:40:07 436.795
AO-7 28 Apr 15:53:24 16:01:39 72° 254° (WSW) 16:09:58 .
ITUPSAT 1 28 Apr 16:05:35 16:10:23 89° 97° (E) 16:15:11 437.325
ITAMSAT 1 28 Apr 16:10:29 16:15:17 38° 262° (W) 16:20:07 435.822/435.867
KKS-1 28 Apr 16:35:31 16:38:07 15° 92° (E) 16:40:44 437.445
MOZHAYETS 4 28 Apr 16:36:36 16:41:15 83° 283° (WNW) 16:45:52
DOVE 4 28 Apr 16:43:53 16:47:04 16° 63° (ENE) 16:50:13 437.250
BEESAT 28 Apr 17:01:57 17:05:51 25° 293° (WNW) 17:09:44 436.000
STARS 28 Apr 17:02:10 17:03:56 12° 91° (E) 17:05:43 437.465
XW-2D 28 Apr 17:07:30 17:08:27 11° 64° (ENE) 17:09:24 145.860 - 145.880
XW-2B 28 Apr 17:13:45 17:15:23 13° 65° (ENE) 17:17:02 145.730 - 145.750
KAITUO 1B 28 Apr 17:18:48 17:19:59 11° 65° (ENE) 17:21:08 145.475/437.950
RS-15 28 Apr 17:18:53 17:30:51 65° 246° (WSW) 17:42:12 29.354- 29.394
YUBILEINY 28 Apr 17:24:08 17:31:09 28° 278° (W) 17:38:12 435.215
XW-2C 28 Apr 17:24:48 17:27:18 17° 67° (ENE) 17:29:48 145.795 - 145.815
LilacSat-2 28 Apr 17:26:02 17:28:42 19° 68° (ENE) 17:31:23 437.200
CUBESAT XI-V 28 Apr 17:33:03 17:37:46 67° 101° (ESE) 17:42:26 437.345
CUTE-I 28 Apr 17:33:20 17:37:51 29° 66° (ENE) 17:42:22 437.470
ITUPSAT 1 28 Apr 17:46:26 17:47:28 11° 301° (WNW) 17:48:30 437.325
XW-2F 28 Apr 17:47:47 17:51:05 30° 71° (ENE) 17:54:23 145.980 - 146.000
AO-7 28 Apr 17:52:43 17:55:44 12° 272° (W) 17:58:47 .
NUDT-PHONESAT 28 Apr 17:52:56 17:56:05 28° 71° (ENE) 17:59:17 437.300
KKS-1 28 Apr 18:10:40 18:14:56 47° 288° (WNW) 18:19:10 437.445
DOVE 4 28 Apr 18:18:55 18:24:11 67° 259° (W) 18:29:23 437.250
HO-68 28 Apr 18:36:15 18:42:35 36° 63° (ENE) 18:48:57 435.675
STARS 28 Apr 18:36:20 18:40:38 57° 286° (WNW) 18:44:53 437.465
XW-2D 28 Apr 18:38:31 18:42:09 52° 260° (W) 18:45:50 145.860 - 145.880
XW-2B 28 Apr 18:45:36 18:49:10 44° 261° (W) 18:52:47 145.730 - 145.750
CUBEBUG 2 28 Apr 18:47:23 18:48:04 10° 63° (ENE) 18:48:45 437.445
KAITUO 1B 28 Apr 18:49:58 18:53:32 48° 261° (W) 18:57:08 145.475/437.950
CUTE 1.7 + AOD 2 28 Apr 18:52:20 18:55:47 25° 69° (ENE) 18:59:16 437.475
XW-2C 28 Apr 18:57:56 19:01:15 30° 263° (W) 19:04:37 145.795 - 145.815
LilacSat-2 28 Apr 18:59:32 19:02:47 28° 264° (W) 19:06:04 437.200
STRAND 1 28 Apr 19:02:10 19:03:34 11° 89° (E) 19:04:59 437.568
NO-84 28 Apr 19:02:23 19:06:10 63° 135° (SE) 19:09:38 435.350 FM
XW-2A 28 Apr 19:02:25 19:05:19 28° 72° (ENE) 19:08:14 145.665 - 145.685
SEEDS 28 Apr 19:08:14 19:11:37 24° 69° (ENE) 19:15:02 437.485
CUBESAT XI-V 28 Apr 19:12:15 19:14:33 14° 298° (WNW) 19:16:51 437.345
CUTE-I 28 Apr 19:12:51 19:17:44 36° 263° (W) 19:22:39 437.470
XW-2F 28 Apr 19:22:52 19:25:16 16° 267° (W) 19:27:42 145.980 - 146.000
NUDT-PHONESAT 28 Apr 19:27:35 19:30:02 17° 266° (W) 19:32:31 437.300
RS-15 28 Apr 19:36:31 19:40:35 12° 267° (W) 19:44:37 29.354- 29.394
O/OREOS (USA 219) 28 Apr 19:54:29 19:59:02 59° 65° (ENE) 20:03:30 437.305
UWE-3 28 Apr 20:02:13 20:06:12 41° 73° (ENE) 20:10:08 435.000/436.395/437.385
AAUSAT CUBESAT 2 28 Apr 20:08:42 20:12:45 55° 74° (ENE) 20:16:50 437.432
CUBEBUG 2 28 Apr 20:19:46 20:24:07 73° 259° (W) 20:28:21 437.445
HO-68 28 Apr 20:23:22 20:30:07 45° 261° (W) 20:36:56 435.675
CUTE 1.7 + AOD 2 28 Apr 20:27:58 20:31:31 26° 265° (W) 20:35:07 437.475
M-CUBED/EXP-1 PRIME 28 Apr 20:31:05 20:35:08 56° 105° (ESE) 20:38:51 437.505
DELFI C3 28 Apr 20:35:41 20:36:56 11° 64° (ENE) 20:38:11 145.870
XW-2A 28 Apr 20:36:18 20:38:08 14° 267° (W) 20:39:58 145.665 - 145.685
STRAND 1 28 Apr 20:38:13 20:43:20 81° 284° (WNW) 20:48:26 437.568
NO-84 28 Apr 20:41:19 20:43:56 19° 330° (NNW) 20:46:24 435.350 FM
SEEDS 28 Apr 20:43:38 20:47:11 27° 264° (W) 20:50:48 437.485
ZACube-1 28 Apr 20:52:18 20:56:30 88° 70° (ENE) 21:00:39 437.345
AO-73 28 Apr 20:57:49 21:01:59 89° 248° (WSW) 21:06:09 145.935
Oscar 11 28 Apr 21:10:25 21:14:42 78° 257° (WSW) 21:19:03 .
AO-85 28 Apr 21:10:44 21:14:43 68° 57° (ENE) 21:18:51 145.980
O/OREOS (USA 219) 28 Apr 21:35:49 21:37:52 13° 262° (W) 21:39:53 437.305
UWE-3 28 Apr 21:40:14 21:42:49 16° 267° (W) 21:45:24 435.000/436.395/437.385
AAUSAT CUBESAT 2 28 Apr 21:47:07 21:48:32 12° 270° (W) 21:49:59 437.432
PRISM 28 Apr 21:57:06 22:00:17 21° 95° (E) 22:03:25 437.425
BEESAT 3 28 Apr 21:58:38 22:02:28 41° 53° (NE) 22:06:14 437.485
BEESAT 2 28 Apr 22:03:12 22:06:16 20° 46° (NE) 22:09:19 435.950
M-CUBED/EXP-1 PRIME 28 Apr 22:07:07 22:09:00 13° 303° (WNW) 22:10:49 437.505
DELFI C3 28 Apr 22:07:16 22:11:11 59° 260° (W) 22:15:09 145.870
FO-29 28 Apr 22:10:40 22:14:13 18° 93° (E) 22:17:54 435.910
OBJECT BX 28 Apr 22:14:17 22:17:52 61° 259° (W) 22:21:29 145.990 - 145.960
STRAND 1 28 Apr 22:20:56 22:21:39 10° 302° (WNW) 22:22:22 437.568
TIGRISAT 28 Apr 22:49:49 22:53:59 50° 100° (E) 22:58:13 435.000
AO-85 28 Apr 22:54:16 22:54:35 10° 251° (WSW) 22:54:53 145.980
ESTCUBE 1 28 Apr 22:55:37 22:59:32 30° 69° (ENE) 23:03:30 437.505/2401.250
VELOX 1 28 Apr 23:02:21 23:02:48 10° 60° (ENE) 23:03:16 145.980
LO-87 28 Apr 23:10:11 23:13:49 80° 77° (ENE) 23:17:28 145.935 - 145.965
UNISAT 6 28 Apr 23:11:42 23:16:01 84° 284° (WNW) 23:20:23 437.425
AIST 2D 28 Apr 23:17:16 23:18:28 11° 92° (E) 23:19:40 435.315
PRISM 28 Apr 23:31:56 23:35:34 30° 291° (WNW) 23:39:11 437.425
BEESAT 3 28 Apr 23:37:05 23:39:43 17° 250° (WSW) 23:42:20 437.485
BEESAT 2 28 Apr 23:40:22 23:44:12 41° 244° (WSW) 23:47:59 435.950
SPROUT 28 Apr 23:43:29 23:46:58 25° 68° (ENE) 23:50:27 437.525
DX 1 28 Apr 23:45:21 23:46:47 11° 61° (ENE) 23:48:12 434.975-435.025
DUCHIFAT 1 28 Apr 23:51:43 23:53:58 14° 92° (E) 23:56:11 145.980
EO-79 28 Apr 23:52:04 23:54:56 18° 93° (E) 23:57:47 145.935-145.965
FO-29 28 Apr 23:54:30 23:59:36 54° 288° (WNW) 00:05:03 435.910
TIGRISAT 29 Apr 00:27:52 00:30:16 15° 295° (WNW) 00:32:42 435.000
POLYITAN 1 29 Apr 00:31:06 00:35:12 50° 100° (E) 00:39:16 437.675
ESTCUBE 1 29 Apr 00:32:37 00:36:19 25° 265° (W) 00:40:03 437.505/2401.250
VELOX 1 29 Apr 00:34:05 00:38:33 83° 256° (WSW) 00:43:03 145.980
QB50P2 29 Apr 00:37:47 00:42:00 66° 102° (ESE) 00:46:10 145.880/145.840
UKube-1 29 Apr 00:40:41 00:44:27 30° 69° (ENE) 00:48:15 .
BUGSAT 1 29 Apr 00:43:26 00:45:59 16° 93° (E) 00:48:31 437.445
AIST 2D 29 Apr 00:48:33 00:51:51 39° 286° (WNW) 00:55:10 435.315
NANOSAT C BR1 29 Apr 00:57:14 01:01:27 88° 275° (W) 01:05:37 145.865
50 SAT 29 Apr 01:01:37 01:05:04 61° 260° (W) 01:08:32 437.505
Oscar 19 29 Apr 01:14:27 01:17:11 14° 90° (E) 01:19:56 437.125/150
DX 1 29 Apr 01:17:59 01:22:21 72° 257° (WSW) 01:26:45 434.975-435.025
SPROUT 29 Apr 01:19:06 01:22:45 27° 264° (W) 01:26:26 437.525
DUCHIFAT 1 29 Apr 01:25:51 01:29:51 45° 287° (WNW) 01:33:50 145.980
EO-79 29 Apr 01:26:57 01:30:49 36° 289° (WNW) 01:34:40 145.935-145.965
Gurwin Techsat 1B 29 Apr 01:35:52 01:38:24 13° 90° (E) 01:40:55 435.225
NO-84 29 Apr 01:37:19 01:39:59 29° 35° (NE) 01:42:32 435.350 FM
ITUPSAT 1 29 Apr 01:37:53 01:39:20 11° 60° (ENE) 01:40:47 437.325
PCSat 29 Apr 01:44:36 01:49:46 48° 112° (ESE) 01:54:58 145.827
POLYITAN 1 29 Apr 02:08:18 02:10:33 14° 296° (WNW) 02:12:48 437.675
QB50P2 29 Apr 02:15:56 02:17:12 11° 298° (WNW) 02:18:30 145.880/145.840
UKube-1 29 Apr 02:17:00 02:20:28 23° 265° (W) 02:23:56 .
BUGSAT 1 29 Apr 02:17:47 02:21:28 36° 289° (WNW) 02:25:09 437.445
BEESAT 29 Apr 02:29:49 02:34:09 37° 70° (ENE) 02:38:32 436.000
YUBILEINY 29 Apr 02:36:54 02:39:51 12° 74° (ENE) 02:42:48 435.215
Oscar 19 29 Apr 02:51:47 02:56:58 67° 287° (WNW) 03:02:06 437.125/150
ITUPSAT 1 29 Apr 03:11:42 03:16:27 83° 255° (WSW) 03:21:15 437.325
Gurwin Techsat 1B 29 Apr 03:13:33 03:18:52 73° 286° (WNW) 03:24:09 435.225
NO-84 29 Apr 03:15:14 03:17:17 18° 232° (SW) 03:19:19 435.350 FM
PCSat 29 Apr 03:28:52 03:33:23 26° 311° (NW) 03:37:56 145.827
KKS-1 29 Apr 03:33:36 03:36:06 15° 63° (ENE) 03:38:37 437.445
MOZHAYETS 4 29 Apr 03:37:43 03:42:17 88° 71° (ENE) 03:46:52
AO-7 29 Apr 03:55:35 04:03:18 40° 99° (E) 04:10:58 .
STARS 29 Apr 03:59:03 04:00:38 12° 62° (ENE) 04:02:13 437.465
BEESAT 29 Apr 04:08:21 04:12:01 22° 266° (W) 04:15:43 436.000
ITAMSAT 1 29 Apr 04:23:07 04:28:18 77° 103° (ESE) 04:33:29 435.822/435.867
YUBILEINY 29 Apr 04:26:19 04:34:56 72° 94° (E) 04:43:35 435.215
CUBESAT XI-V 29 Apr 04:35:35 04:40:09 61° 75° (ENE) 04:44:47 437.345
KKS-1 29 Apr 05:07:49 05:12:12 55° 259° (W) 05:16:36 437.445
RS-15 29 Apr 05:31:59 05:40:30 23° 99° (E) 05:49:10 29.354- 29.394
STARS 29 Apr 05:32:00 05:36:23 70° 258° (WSW) 05:40:47 437.465
SO-50 29 Apr 05:44:46 05:49:09 44° 116° (ESE) 05:53:29 436.795
AO-7 29 Apr 05:48:18 05:56:06 47° 297° (WNW) 06:03:54 .
CUTE-I 29 Apr 05:53:17 05:54:14 10° 88° (E) 05:55:11 437.470
ITAMSAT 1 29 Apr 06:04:31 06:07:05 14° 300° (WNW) 06:09:40 435.822/435.867
XW-2D 29 Apr 06:12:16 06:14:40 16° 93° (E) 06:17:02 145.860 - 145.880
CUBESAT XI-V 29 Apr 06:15:46 06:17:56 13° 270° (W) 06:20:05 437.345
STRAND 1 29 Apr 06:16:48 06:20:04 17° 62° (ENE) 06:23:19 437.568
XW-2B 29 Apr 06:19:01 06:21:43 18° 94° (E) 06:24:25 145.730 - 145.750
DOVE 4 29 Apr 06:19:07 06:23:12 33° 96° (E) 06:27:05 437.250
KAITUO 1B 29 Apr 06:22:20 06:24:43 16° 93° (E) 06:27:06 145.475/437.950
YUBILEINY 29 Apr 06:25:48 06:32:33 25° 294° (WNW) 06:39:21 435.215
XW-2C 29 Apr 06:30:38 06:33:51 25° 96° (E) 06:37:05 145.795 - 145.815
LilacSat-2 29 Apr 06:32:38 06:36:01 28° 96° (E) 06:39:24 437.200
XW-2F 29 Apr 06:53:42 06:57:24 47° 99° (E) 07:01:06 145.980 - 146.000
NUDT-PHONESAT 29 Apr 06:56:55 07:00:28 41° 98° (E) 07:04:01 437.300
Tancredo 1 29 Apr 07:03:52 07:06:40 32° 136° (SE) 07:09:28 437.200
M-CUBED/EXP-1 PRIME 29 Apr 07:15:09 07:19:46 69° 70° (ENE) 07:24:26 437.505
SO-50 29 Apr 07:26:03 07:29:46 23° 314° (NW) 07:33:27 436.795
CUTE-I 29 Apr 07:29:36 07:34:57 88° 284° (WNW) 07:40:15 437.470
RS-15 29 Apr 07:39:10 07:51:15 89° 117° (ESE) 08:03:43 29.354- 29.394
XW-2D 29 Apr 07:45:28 07:48:56 34° 288° (WNW) 07:52:24 145.860 - 145.880
AO-7 29 Apr 07:45:55 07:46:47 10° 319° (NW) 07:47:38 .
ISS 29 Apr 07:45:56 07:49:11 70° 141° (SE) 07:52:26 437.550
HO-68 29 Apr 07:51:08 07:57:45 38° 98° (E) 08:04:19 435.675
XW-2B 29 Apr 07:52:36 07:55:55 29° 289° (WNW) 07:59:16 145.730 - 145.750
STRAND 1 29 Apr 07:53:43 07:58:45 59° 259° (W) 08:03:48 437.568
KAITUO 1B 29 Apr 07:55:24 07:58:49 33° 288° (WNW) 08:02:13 145.475/437.950
XW-2A 29 Apr 07:56:52 07:59:54 31° 98° (E) 08:02:55 145.665 - 145.685
DOVE 4 29 Apr 07:57:12 08:00:41 22° 294° (WNW) 08:04:01 437.250
XW-2C 29 Apr 08:04:59 08:07:55 21° 291° (WNW) 08:10:50 145.795 - 145.815
LilacSat-2 29 Apr 08:07:19 08:10:06 19° 292° (WNW) 08:12:54 437.200
CUBEBUG 2 29 Apr 08:11:13 08:14:31 22° 95° (E) 08:17:51 437.445
CUTE 1.7 + AOD 2 29 Apr 08:12:15 08:16:27 52° 99° (E) 08:20:38 437.475
SEEDS 29 Apr 08:26:55 08:31:03 48° 99° (E) 08:35:10 437.485
XW-2F 29 Apr 08:29:33 08:31:07 12° 295° (WNW) 08:32:40 145.980 - 146.000
NUDT-PHONESAT 29 Apr 08:32:13 08:34:00 13° 294° (WNW) 08:35:47 437.300
Tancredo 1 29 Apr 08:39:48 08:42:33 28° 333° (NNW) 08:45:19 437.200
ZACube-1 29 Apr 08:41:38 08:44:26 17° 93° (E) 08:47:15 437.345
PRISM 29 Apr 08:46:38 08:49:06 16° 64° (ENE) 08:51:35 437.425
AO-73 29 Apr 08:46:45 08:49:36 17° 93° (E) 08:52:30 145.935
M-CUBED/EXP-1 PRIME 29 Apr 08:52:32 08:54:34 13° 265° (W) 08:56:37 437.505
Oscar 11 29 Apr 08:58:42 09:01:54 20° 94° (E) 09:05:05 .
CUTE-I 29 Apr 09:12:14 09:14:10 12° 302° (WNW) 09:16:08 437.470
ISS 29 Apr 09:23:23 09:25:57 21° 339° (NNW) 09:28:30 437.550
AAUSAT CUBESAT 2 29 Apr 09:26:16 09:30:27 73° 285° (WNW) 09:34:37 437.432
UWE-3 29 Apr 09:27:44 09:31:58 81° 284° (WNW) 09:36:16 435.000/436.395/437.385
XW-2A 29 Apr 09:30:39 09:32:23 13° 293° (WNW) 09:34:05 145.665 - 145.685
HO-68 29 Apr 09:38:49 09:45:28 42° 295° (WNW) 09:52:06 435.675
OBJECT BX 29 Apr 09:45:24 09:46:36 11° 91° (E) 09:47:47 145.990 - 145.960
DELFI C3 29 Apr 09:45:33 09:48:15 17° 93° (E) 09:50:56 145.870
CUBEBUG 2 29 Apr 09:47:30 09:51:08 29° 290° (WNW) 09:54:48 437.445
TIGRISAT 29 Apr 09:48:00 09:52:06 41° 72° (ENE) 09:56:07 435.000
CUTE 1.7 + AOD 2 29 Apr 09:49:32 09:51:50 14° 296° (WNW) 09:54:08 437.475
RS-15 29 Apr 09:54:43 10:05:31 35° 327° (NNW) 10:16:30 29.354- 29.394
SEEDS 29 Apr 10:03:54 10:06:19 15° 295° (WNW) 10:08:44 437.485
FO-29 29 Apr 10:05:49 10:11:54 60° 73° (ENE) 10:17:21 435.910
O/OREOS (USA 219) 29 Apr 10:06:00 10:10:34 76° 111° (ESE) 10:15:11 437.305
UNISAT 6 29 Apr 10:09:48 10:14:10 80° 74° (ENE) 10:18:29 437.425
ZACube-1 29 Apr 10:16:53 10:20:51 40° 288° (WNW) 10:24:53 437.345
Tancredo 1 29 Apr 10:18:02 10:19:14 12° 353° (N) 10:20:25 437.200
PRISM 29 Apr 10:20:01 10:24:00 45° 261° (W) 10:28:01 437.425
AO-73 29 Apr 10:22:01 10:25:58 38° 288° (WNW) 10:29:59 145.935
PCSat 29 Apr 10:32:47 10:37:48 37° 53° (NE) 10:42:47 145.827
Oscar 11 29 Apr 10:34:08 10:38:07 35° 289° (WNW) 10:42:04 .
DUCHIFAT 1 29 Apr 10:44:41 10:45:41 11° 62° (ENE) 10:46:41 145.980
EO-79 29 Apr 10:44:59 10:47:05 14° 64° (ENE) 10:49:12 145.935-145.965
ISS 29 Apr 11:02:06 11:03:24 12° 359° (N) 11:04:42 437.550
OBJECT BX 29 Apr 11:17:00 11:20:30 43° 287° (WNW) 11:23:59 145.990 - 145.960
DELFI C3 29 Apr 11:19:29 11:23:07 33° 288° (WNW) 11:26:42 145.870
AIST 2D 29 Apr 11:22:00 11:25:24 62° 77° (ENE) 11:28:52 435.315
POLYITAN 1 29 Apr 11:23:09 11:26:59 35° 71° (ENE) 11:30:48 437.675
AO-85 29 Apr 11:25:27 11:28:53 23° 114° (ESE) 11:32:10 145.980
TIGRISAT 29 Apr 11:26:08 11:28:56 17° 267° (W) 11:31:43 435.000
